AD8IZ-13 Weather Reports


Display with metric or nautical units.
time (UTC)temp
F
wind
direction
speed
MPH
gust
MPH
rain 1hr
in
rain 24hr
in
rain mn
in
humidity
%
barometer
mb
20260510192519 68 303 2.0 7.0 0.00 0.01 0.01 49 1015.8
20260510191518 68 300 3.0 8.0 0.00 0.01 0.01 49 1015.7
20260510190518 69 338 3.0 6.0 0.00 0.01 0.01 49 1015.6
20260510185520 69 336 2.0 6.0 0.00 0.01 0.01 50 1015.6
20260510184520 68 349 1.0 4.0 0.00 0.01 0.01 50 1015.7
20260510183520 68 295 2.0 6.0 0.00 0.01 0.01 50 1015.6
20260510182520 67 327 2.0 6.0 0.00 0.01 0.01 50 1015.6
20260510181518 67 319 1.0 5.0 0.00 0.01 0.01 51 1015.7
20260510180518 67 323 2.0 7.0 0.00 0.01 0.01 50 1015.7
20260510175521 67 310 3.0 8.0 0.00 0.01 0.01 50 1015.3
20260510174520 68 318 3.0 7.0 0.00 0.01 0.01 50 1015.3
20260510173518 67 322 1.0 5.0 0.00 0.01 0.01 50 1015.4
20260510172518 66 203 1.0 5.0 0.00 0.01 0.01 51 1015.5
20260510171518 66 313 3.0 8.0 0.00 0.01 0.01 51 1015.5
20260510170518 66 322 2.0 4.0 0.00 0.01 0.01 52 1015.5
20260510165520 66 304 1.0 5.0 0.00 0.01 0.01 51 1015.6
20260510164520 66 313 2.0 6.0 0.00 0.01 0.01 51 1015.7
20260510163531 66 320 1.0 4.0 0.00 0.01 0.01 51 1015.7
20260510162519 65 33 1.0 4.0 0.00 0.01 0.01 51 1015.8
20260510161522 65 309 2.0 5.0 0.00 0.01 0.01 50 1015.7
20260510160520 65 306 2.0 7.0 0.00 0.01 0.01 49 1015.6
20260510155520 65 317 0.0 3.0 0.00 0.01 0.01 51 1015.6
20260510154520 64 320 1.0 5.0 0.00 0.01 0.01 52 1015.6
20260510153521 65 309 2.0 4.0 0.00 0.01 0.01 52 1015.4
20260510152522 63 346 1.0 5.0 0.00 0.01 0.01 55 1015.3
20260510151518 63 336 1.0 4.0 0.00 0.01 0.01 56 1015.2
20260510150518 62 175 0.0 3.0 0.00 0.01 0.01 59 1015.2
20260510145521 61 28 1.0 3.0 0.00 0.01 0.01 58 1015.1
20260510144521 60 343 1.0 5.0 0.00 0.01 0.01 59 1015.1
20260510143518 60 6 1.0 3.0 0.00 0.01 0.01 60 1014.9
20260510142518 59 347 1.0 3.0 0.00 0.01 0.01 61 1014.8
20260510141519 58 41 0.0 3.0 0.00 0.01 0.01 61 1014.8
20260510140518 58 29 0.0 2.0 0.00 0.01 0.01 61 1014.7
20260510135522 57 43 0.0 3.0 0.00 0.01 0.01 63 1014.8
20260510134519 57 20 0.0 3.0 0.00 0.01 0.01 63 1014.7
20260510133519 57 268 0.0 2.0 0.00 0.01 0.01 64 1014.7
20260510132524 56 1 0.0 3.0 0.00 0.01 0.01 65 1014.5
20260510131524 56 18 0.0 1.0 0.00 0.01 0.01 67 1014.5
20260510130524 56 16 0.0 2.0 0.00 0.01 0.01 68 1014.5
20260510125525 55 0.0 0.0 0.00 0.01 0.01 69 1014.5
20260510124525 55 221 0.0 1.0 0.00 0.01 0.01 70 1014.3
20260510123525 54 26 0.0 3.0 0.00 0.01 0.01 69 1014.1
20260510122525 54 4 1.0 3.0 0.00 0.02 0.01 72 1014.0
20260510121525 54 0.0 0.0 0.00 0.02 0.01 74 1014.1
20260510120525 54 0.0 0.0 0.00 0.02 0.01 74 1013.9
20260510115525 54 0.0 0.0 0.00 0.02 0.01 73 1013.8
20260510114526 55 44 0.0 1.0 0.00 0.02 0.01 74 1013.6
20260510113527 55 35 1.0 2.0 0.00 0.02 0.01 73 1013.6
20260510112526 55 36 1.0 3.0 0.00 0.02 0.01 76 1013.3
20260510111527 55 0.0 0.0 0.00 0.02 0.00 76 1013.2
20260510110526 55 337 0.0 1.0 0.00 0.02 0.00 76 1013.1
20260510105526 56 6 0.0 2.0 0.00 0.02 0.00 77 1013.0
20260510104527 56 325 0.0 2.0 0.00 0.03 0.00 77 1012.6
20260510103527 56 332 1.0 3.0 0.00 0.04 0.00 76 1012.4
20260510102517 56 320 1.0 3.0 0.00 0.05 0.00 77 1012.1
20260510101521 56 327 0.0 2.0 0.00 0.05 0.00 78 1011.9
20260510100522 56 309 0.0 2.0 0.00 0.06 0.00 77 1011.8
20260510095521 57 333 0.0 1.0 0.00 0.06 0.00 77 1011.7
20260510094520 57 305 1.0 3.0 0.00 0.07 0.00 78 1011.7
20260510093518 57 330 1.0 4.0 0.00 0.07 0.00 78 1011.5
20260510092518 57 316 0.0 3.0 0.00 0.08 0.00 79 1011.4
20260510090520 57 315 0.0 2.0 0.00 0.09 0.00 82 1010.9
20260510085520 58 302 0.0 2.0 0.00 0.10 0.00 82 1010.7
20260510084519 58 216 0.0 2.0 0.00 0.10 0.00 81 1010.5
20260510083520 58 309 0.0 1.0 0.00 0.11 0.00 81 1010.2
20260510082519 58 250 0.0 2.0 0.00 0.11 0.00 80 1010.0
20260510081521 59 296 0.0 2.0 0.00 0.12 0.00 79 1009.9
20260510080524 59 300 1.0 2.0 0.00 0.12 0.00 79 1009.9
20260510075520 59 299 0.0 2.0 0.00 0.13 0.00 78 1009.8
20260510074520 59 325 1.0 2.0 0.00 0.14 0.00 78 1010.0
20260510073517 59 319 1.0 4.0 0.00 0.16 0.00 79 1010.0
20260510072520 59 294 0.0 2.0 0.00 0.17 0.00 79 1010.1
20260510071518 60 238 0.0 1.0 0.00 0.19 0.00 78 1010.0
20260510070518 60 315 0.0 1.0 0.00 0.20 0.00 77 1010.0
20260510065518 61 333 0.0 2.0 0.00 0.21 0.00 76 1010.0
20260510064521 61 354 0.0 2.0 0.00 0.22 0.00 75 1009.9
20260510063521 62 0.0 0.0 0.00 0.22 0.00 75 1009.7
20260510062518 62 298 1.0 4.0 0.00 0.23 0.00 75 1009.9
20260510061519 62 235 0.0 5.0 0.00 0.23 0.00 76 1010.1
20260510060519 61 289 1.0 5.0 0.00 0.23 0.00 79 1010.2
20260510055520 60 277 0.0 4.0 0.00 0.23 0.00 82 1010.2
20260510054520 60 321 0.0 1.0 0.00 0.23 0.00 82 1010.2
20260510053519 59 0.0 0.0 0.00 0.23 0.00 82 1010.1
20260510052520 60 0.0 0.0 0.00 0.23 0.00 82 1010.0
20260510051519 60 0.0 0.0 0.00 0.23 0.00 81 1009.8
20260510050519 60 0.0 0.0 0.00 0.23 0.00 81 1009.7
20260510045517 60 0.0 0.0 0.00 0.23 0.00 81 1009.8
20260510044520 59 0.0 0.0 0.00 0.23 0.00 81 1009.5
20260510043520 59 75 0.0 3.0 0.00 0.24 0.00 81 1009.5
20260510042520 59 0.0 0.0 0.00 0.24 0.00 81 1009.5
20260510041523 59 0.0 0.0 0.00 0.24 0.00 81 1009.4
20260510040519 59 0.0 0.0 0.00 0.24 0.00 81 1009.3
20260510035518 59 0.0 0.0 0.00 0.24 0.24 82 1009.2
20260510034522 59 0.0 0.0 0.00 0.24 0.24 81 1009.2
20260510033522 59 0.0 0.0 0.00 0.24 0.24 80 1009.1
20260510032518 60 0.0 0.0 0.00 0.24 0.24 79 1009.0
20260510031520 60 0.0 0.0 0.00 0.24 0.24 78 1008.9
20260510030519 61 0.0 0.0 0.00 0.24 0.24 77 1008.9
20260510025519 61 0.0 0.0 0.00 0.24 0.24 77 1008.9
20260510024519 61 0.0 0.0 0.00 0.24 0.24 76 1008.8
20260510023520 62 0.0 0.0 0.00 0.24 0.24 75 1008.7
20260510022519 62 149 0.0 2.0 0.00 0.24 0.24 75 1008.6
20260510021520 62 41 0.0 1.0 0.00 0.24 0.24 73 1008.5
20260510020520 63 0.0 0.0 0.00 0.24 0.24 72 1008.4
20260510015517 64 0.0 0.0 0.00 0.24 0.24 71 1008.3
20260510014521 64 180 0.0 3.0 0.00 0.24 0.24 70 1008.1
20260510013522 65 196 0.0 2.0 0.00 0.24 0.24 69 1008.0
20260510012520 65 191 0.0 3.0 0.00 0.24 0.24 68 1007.8
20260510011518 65 176 1.0 3.0 0.00 0.24 0.24 69 1007.7
20260510010518 66 0.0 0.0 0.00 0.24 0.24 67 1007.7
20260510005519 67 213 0.0 2.0 0.00 0.24 0.24 66 1007.6
20260510004522 67 206 0.0 2.0 0.00 0.24 0.24 65 1007.4
20260510003521 68 208 1.0 3.0 0.00 0.24 0.24 64 1007.3
20260510002518 68 225 1.0 5.0 0.00 0.24 0.24 63 1007.1
20260510001519 68 174 0.0 2.0 0.00 0.25 0.24 63 1007.0
20260510000518 69 233 0.0 2.0 0.00 0.25 0.24 62 1006.9
20260509235519 70 193 2.0 6.0 0.00 0.25 0.24 60 1006.8
20260509234519 70 190 2.0 7.0 0.00 0.25 0.24 59 1006.7
20260509233520 71 181 1.0 5.0 0.00 0.25 0.24 59 1006.6
20260509232520 72 184 3.0 6.0 0.00 0.25 0.24 58 1006.6
20260509231521 72 183 2.0 6.0 0.00 0.25 0.24 57 1006.5
20260509230518 71 185 2.0 5.0 0.00 0.25 0.24 58 1006.5
20260509225517 71 181 2.0 5.0 0.00 0.25 0.24 59 1006.5
20260509224521 72 177 3.0 8.0 0.00 0.25 0.24 59 1006.4
20260509223520 72 189 3.0 7.0 0.00 0.25 0.24 58 1006.4
20260509222518 72 182 3.0 7.0 0.00 0.25 0.24 58 1006.3
20260509221518 71 182 4.0 10.0 0.00 0.25 0.24 59 1006.3
20260509220519 72 189 5.0 10.0 0.00 0.25 0.24 59 1006.4
20260509215520 72 162 3.0 7.0 0.00 0.25 0.24 61 1006.5
20260509214519 72 182 3.0 6.0 0.00 0.25 0.24 61 1006.6
20260509213519 72 184 3.0 8.0 0.00 0.25 0.24 61 1006.6
20260509212519 72 165 2.0 6.0 0.00 0.25 0.24 61 1006.7
20260509211521 72 236 3.0 7.0 0.00 0.25 0.24 60 1006.7
20260509210520 72 179 4.0 11.0 0.00 0.25 0.24 61 1006.7
20260509205519 72 169 3.0 6.0 0.00 0.25 0.24 62 1006.8
20260509204519 72 193 3.0 8.0 0.00 0.25 0.24 61 1006.8
20260509203519 72 193 2.0 7.0 0.00 0.25 0.24 62 1006.9
20260509201517 72 197 3.0 8.0 0.00 0.25 0.24 62 1007.0
20260509200517 71 191 3.0 8.0 0.00 0.25 0.24 64 1007.2
20260509195521 71 193 3.0 9.0 0.00 0.25 0.24 62 1007.3
20260509194522 71 212 3.0 7.0 0.00 0.25 0.24 62 1007.4
20260509193521 71 171 3.0 8.0 0.00 0.25 0.24 64 1007.4